Showing default

RADUGA 21, 18631

Orbit data source: Space-Track

RADUGA 21, 18631 is a payload satellite owned by UNKS (CIS) in GEO that was launched on Thu, 10 Dec 1987 UTC via a PROTON-K/DM-2 launch vehicle from the Tyuratam Missile And Space Complex (TTMTR). Payloads include a variety of satellites, spacecraft, and rockets equipped with specific instruments for various scientific and technological missions. These include communications satellites like Starlink; space stations such as the ISS; scientific satellites like the Hubble; Earth observation satellites from companies like Planet Labs, Umbra, and HawkEye 360; GPS; miniature CubeSats for education and research; and military/defense satellites.

Loading next visibility...
RADUGA 21 details
Identifier
18631, 1987-100A
Orbit
GEO
Last TLE update11 hours ago
Origin
Flag of CISUNKS (CIS)
ManufacturerNPO PM
MissionNon-operational Defense Communications
Bus & MotorRADUGA, Unknown motor
Mass1,965 kg wet, ~1,800 kg dry
Launch date (UTC)
1987-12-10 (37 years ago)
Launch vehicle
PROTON-K/DM-2
Launch site
Tyuratam Missile And Space Complex (TTMTR)
Object type
Payload
Rocket body
Debris
Shape & HBRCyl + 2 Pan, 9.5 m
Radar Cross Section16.975 m², Large (>1 m²)

Expand to show TLE details & history

TLE from 11 hours ago
0 RADUGA 21
1 18631U 87100A   24348.50061736 -.00000032  00000-0  00000+0 0  9999
2 18631  12.0962 329.2108 0002037 211.9678 327.3138  1.00184048135554
Epoch: 2024-12-13T12:00Z
Definitive object data (Epoch: 2024-12-13T12:00:53.339Z)
Latitude0.14848°
Longitude-114.39809°
Altitude35,803.543 km
Speed3.074 km/s
True Right ascension09h 53m 57s
True Declination0° 08' 54"
Sunlit
Object was in daylight at TLE epoch
Visualization TLE readout
Latitude-3.00158°
Longitude52.16394°
Altitude35,817.053 km
Speed3.073 km/s
Apparent Right ascension20h 55m 26s
Apparent Declination-9° 33' 07"
Sunlit
Object is in daylight
Visualization observer readout
Local Sidereal Time21:36:39
Azimuth193.237° SSW
Elevation39.619°
Doppler factor1
Orbital elements
Apogee altitude35,820.804 km
Perigee altitude35,803.616 km
Semi-major axis42,190.347 km
Eccentricity0.0002037
Inclination12.0962°
RAAN329.2108°
Arg. of periapsis211.9678°
True anomaly327.30119°
Mean anomaly327.3138°
Eccentric anomaly327.3075°
Mean motion0.25045 °/min
BSTARUnknown
Orbital period1437.4 mins
Loading historical data...
18631 neighbors
Authenticating...
Loading maneuver chart data...
Loading historical data...
Loading historical data...
Loading historical data...
Loading historical data...
Loading historical data...
Loading historical data...
Loading historical data...

RADUGA 21 Visibility forecast

Observer location: undefined°, undefined

Span
Click to sort rows by Start time (UTC) header in descending order
Start Az.
Max El. time (UTC)
Max El. Az.
Max El.
End time (UTC)
End Az.
1440 mins2024-12-13 23:04:38.856Z193.232° SSW2024-12-14 06:09:38.856Z199.423° SSW39.704°2024-12-14 23:04:38.856Z193.735° SSW
|